1998-067LK

Last updated on Thu May 25 2017 00:15:03 GMT+0000 (Coordinated Universal Time)

1 42702U 98067LK 17144.38957132 .00019991 00000-0 29711-3 0 9992 2 42702 51.6411 156.8682 0006758 231.0452 266.5827 15.55141661 1152

Satellite not in orbit